Theta_e
320 320 320 320 321 322 322 323 323 324 324 325 325 326 327 327 326 323 320 333 335 353 353 328 328 328 326 323 327 331 316 315 317 320 323 329 325 330 334 335 338 339 336 338 345
320 320 320 320 321 321 322 322 323 323 324 324 324 326 327 327 322 319 334 356 355 352 325 324 322 326 320 321 325 318 312 318 323 324 324 328 328 326 329 331 335 336 340 342 345
320 319 319 319 320 321 321 322 322 322 323 323 324 326 327 326 318 320 356 361 355 347 327 326 326 325 320 320 321 319 316 320 322 325 330 328 327 329 328 327 333 332 335 339 341
319 319 319 319 319 320 321 321 321 322 322 323 324 326 327 323 309 324 352 356 355 336 326 324 325 321 316 316 321 315 323 322 324 329 329 327 331 328 330 333 339 338 339 338 336
319 319 318 318 318 319 320 320 321 321 322 323 324 327 322 316 317 329 356 349 333 328 326 325 322 319 316 319 319 316 322 322 325 324 325 327 327 328 326 338 340 339 339 337 336
318 318 318 318 318 319 320 320 321 320 321 323 325 327 321 311 327 329 330 328 329 330 327 327 321 323 320 316 315 319 321 320 322 322 323 324 326 327 330 338 337 337 336 336 336
318 318 318 317 317 318 319 320 320 320 321 323 325 325 317 315 329 328 328 327 330 329 325 327 325 320 320 316 321 319 315 319 319 319 322 325 321 326 332 337 335 335 335 336 336
318 318 317 317 317 318 318 318 319 320 321 324 327 321 312 326 324 325 326 328 331 328 326 327 326 321 318 321 318 315 317 311 319 319 321 316 310 324 329 333 333 335 335 336 336
317 316 316 316 317 317 317 317 318 321 324 325 320 315 310 329 320 323 323 325 328 327 326 332 323 317 318 312 307 313 305 312 316 319 318 314 312 322 327 330 331 333 334 335 335
316 316 316 315 316 316 316 316 319 319 322 322 323 311 317 316 319 321 322 326 324 324 322 320 316 311 311 310 301 306 306 310 309 313 314 310 308 317 323 323 329 331 334 335 335
316 316 315 314 316 315 313 313 308 309 311 308 311 314 317 321 322 318 323 323 322 318 310 315 307 305 311 312 309 308 305 307 311 314 311 309 308 311 315 321 324 326 331 333 335
316 315 315 314 315 314 311 313 313 315 304 315 314 315 318 317 313 316 320 316 315 310 313 310 306 313 318 312 309 308 306 306 311 315 309 307 308 312 317 317 320 325 331 332 334
316 315 315 314 314 310 311 311 320 317 306 310 313 312 313 312 310 311 314 314 314 311 312 307 312 317 314 309 308 305 305 305 307 311 310 308 310 315 320 322 323 320 330 333 334
316 315 314 313 308 313 310 314 317 316 302 310 307 312 313 312 307 316 317 314 312 311 312 310 316 316 310 307 308 302 310 310 309 303 298 308 301 312 316 317 320 320 321 330 332
315 314 313 312 307 315 315 317 317 314 294 312 309 317 312 308 309 311 318 314 309 312 310 309 312 311 310 309 311 307 312 310 310 303 299 305 306 308 314 311 316 322 325 326 336
315 313 312 312 310 313 320 320 317 301 296 304 309 306 307 308 310 314 313 314 315 311 311 310 316 311 309 312 313 314 308 307 305 301 295 306 305 305 310 314 315 319 325 329 330
313 312 310 316 314 323 323 317 300 297 310 303 305 307 306 305 308 309 308 306 304 299 300 308 309 310 311 304 310 307 299 293 295 299 297 305 306 306 314 318 319 319 323 329 328
311 310 310 314 320 319 319 308 298 308 307 308 308 307 304 306 306 307 306 304 309 306 300 299 298 306 310 306 303 303 303 294 293 295 299 308 302 309 319 319 321 324 331 340 339
309 313 316 319 317 315 312 302 304 312 313 308 306 303 303 307 306 305 304 304 307 306 297 297 301 310 311 311 308 303 298 304 299 301 300 304 310 317 321 320 321 323 337 335 334
313 321 316 320 317 312 309 303 311 317 318 308 302 305 301 303 303 302 303 307 308 310 306 302 300 307 310 312 311 307 307 299 302 297 299 303 306 307 314 317 320 332 334 335 334
317 317 322 321 318 312 304 307 314 319 318 309 306 304 304 303 303 302 303 308 310 309 308 312 302 306 308 305 304 303 301 303 302 302 296 296 302 316 314 316 317 330 330 324 323
320 314 319 321 308 310 305 309 312 315 317 315 315 313 308 308 304 303 307 308 313 313 305 308 299 298 304 314 315 311 307 306 299 299 302 303 302 320 318 320 321 330 332 331 321
314 321 323 320 304 306 310 310 312 315 314 312 312 315 313 312 304 307 312 315 315 315 308 309 304 296 300 307 311 309 308 307 310 299 298 300 302 319 319 315 317 318 329 333 334
314 314 315 315 314 309 308 312 312 317 314 316 314 314 312 309 309 309 311 315 317 316 327 315 302 300 295 303 307 307 311 312 305 299 300 303 305 309 313 315 317 317 317 321 334
317 320 322 307 308 309 310 313 312 310 313 315 314 314 311 309 310 311 313 313 316 320 315 308 301 302 306 311 312 310 309 311 309 305 301 305 307 310 313 315 318 320 320 324 328
316 318 322 320 317 309 308 310 311 311 313 310 312 314 314 310 312 311 313 312 312 313 309 310 303 307 306 310 311 309 311 312 312 311 308 311 309 315 317 319 321 321 320 320 324
325 325 321 317 318 308 307 310 312 314 317 316 317 316 315 316 318 319 319 316 314 313 310 308 304 303 299 307 306 301 307 309 308 309 306 302 309 317 317 319 319 320 322 323 322
Wind_Speed
12 12 12 11 11 11 11 12 13 14 15 16 16 16 17 19 23 4 9 9 4 10 7 11 17 18 15 13 6 8 6 3 3 4 14 17 7 5 4 4 4 4 14 17 24
13 12 12 12 11 11 12 13 14 15 15 16 16 16 16 16 6 10 14 8 6 9 7 11 19 20 8 7 2 6 5 4 6 6 14 14 9 1 3 2 15 17 16 16 25
14 13 12 12 12 12 12 13 14 15 15 16 17 16 16 14 5 9 8 8 9 10 6 13 15 18 20 9 6 4 4 8 7 4 19 12 7 10 4 2 16 18 16 14 23
14 14 13 12 11 12 12 13 14 15 15 16 16 16 19 4 2 2 6 8 8 9 7 10 12 13 11 3 7 10 5 8 6 3 16 10 8 14 12 10 17 18 16 13 10
15 14 13 12 12 12 12 13 14 15 15 15 16 14 9 4 10 5 7 10 5 8 14 18 17 7 7 5 9 8 2 9 9 7 7 5 15 16 15 18 20 17 15 13 10
15 15 14 13 12 12 12 12 13 15 15 14 14 17 3 8 12 11 9 9 10 11 17 17 9 10 6 3 7 4 4 7 9 6 5 6 7 9 10 19 19 18 15 12 10
16 15 14 14 12 12 12 12 14 15 15 13 12 6 5 18 11 11 10 8 9 12 11 13 7 9 10 8 5 5 6 1 7 5 3 7 6 1 15 18 20 18 16 16 12
15 15 15 14 13 12 11 12 15 16 15 13 8 5 9 10 11 17 7 9 10 9 8 11 8 8 6 9 4 7 4 3 3 8 5 7 5 8 13 19 19 20 17 14 12
17 16 15 15 13 11 11 13 16 16 15 11 5 5 10 6 6 11 7 9 10 9 11 13 5 7 13 7 5 5 2 6 6 7 6 7 5 8 11 16 18 19 18 16 11
17 17 16 15 13 11 13 12 11 15 7 7 9 5 7 11 10 8 9 12 9 8 10 7 4 6 7 8 5 7 6 7 7 8 6 2 8 3 12 10 17 15 18 16 13
18 17 16 14 12 10 10 2 1 2 6 11 11 6 6 9 8 8 12 12 8 7 7 11 4 8 12 4 5 7 3 3 1 6 4 3 5 10 5 11 12 11 15 16 16
18 17 16 13 11 8 4 5 11 6 6 19 19 18 20 10 4 5 4 7 6 8 9 7 11 14 3 7 6 8 7 5 5 3 5 7 9 9 7 3 8 12 16 17 16
19 16 15 12 10 4 6 13 12 16 4 5 15 9 9 4 7 9 6 7 10 10 12 9 12 7 2 2 7 6 1 4 0 3 4 6 6 7 7 10 15 7 15 16 20
16 17 14 11 5 3 7 13 19 10 4 7 10 9 10 7 9 11 13 10 6 11 10 8 12 3 4 3 7 4 4 4 6 4 5 6 4 6 7 8 10 6 9 15 7
20 17 12 6 8 5 8 11 15 5 4 10 13 8 10 10 5 8 14 12 14 13 5 14 8 7 2 4 7 8 6 5 4 6 4 5 7 7 7 6 6 10 8 10 24
17 14 11 5 5 14 14 14 1 1 8 8 13 10 8 9 14 16 11 8 10 12 9 11 6 2 4 2 7 7 3 8 6 2 4 6 8 5 5 7 6 15 14 14 25
17 12 7 8 5 10 13 3 2 5 11 13 11 13 10 10 11 12 9 9 7 3 6 8 9 4 4 3 9 4 3 5 6 5 5 2 7 10 6 12 11 15 13 18 18
20 12 10 8 10 11 7 1 6 9 9 13 14 13 12 9 10 10 9 6 10 6 3 6 8 10 6 7 8 7 4 6 2 3 2 11 4 13 9 10 5 8 7 17 12
25 4 5 7 14 4 3 5 6 6 11 14 12 12 11 12 10 9 9 10 11 11 7 3 10 11 9 6 9 11 5 10 5 3 7 4 3 5 14 16 17 4 13 11 14
3 4 6 9 12 4 2 7 7 10 18 18 10 11 9 11 7 9 11 13 13 15 8 8 3 1 4 3 6 3 6 7 5 4 4 5 0 4 3 18 15 14 11 8 5
3 3 6 14 10 3 4 7 13 18 7 4 10 10 10 10 9 7 11 11 12 7 7 3 3 8 4 5 8 2 5 4 2 3 7 5 7 9 14 19 12 10 10 8 7
5 4 9 10 5 4 8 6 17 26 4 4 4 6 6 12 10 8 6 7 8 8 3 3 1 2 7 7 8 8 6 5 5 5 3 7 6 14 17 20 9 12 8 8 6
4 5 5 7 5 9 13 19 23 14 7 4 6 7 7 1 6 5 6 6 8 8 3 5 5 5 11 7 11 4 5 6 14 3 3 5 6 14 18 9 9 11 8 10 12
4 4 2 4 7 10 12 12 9 5 9 12 5 7 6 3 5 8 8 4 11 5 5 7 2 2 4 4 3 6 14 18 6 4 7 2 7 7 10 10 8 8 7 7 10
4 5 5 5 8 13 11 13 17 8 5 8 9 8 4 5 4 1 11 8 9 2 3 3 1 4 8 8 5 5 5 14 12 9 4 6 9 6 7 9 8 9 10 8 8
3 5 6 9 10 10 10 9 14 10 6 4 5 12 9 1 6 8 8 5 7 2 3 3 4 6 8 8 8 3 6 11 9 21 5 17 12 8 7 8 9 8 7 6 7
6 6 3 9 6 7 7 13 13 11 6 9 5 5 8 8 10 7 9 7 8 7 2 3 3 4 4 8 8 6 5 6 5 16 7 8 5 8 9 9 7 6 3 2 2
Wind_Direction
338 330 325 321 316 316 315 313 312 312 312 314 318 319 323 323 313 253 261 243 237 292 274 286 293 291 262 266 243 130 83 304 142 103 72 67 73 63 241 107 108 135 133 146 146
338 332 325 318 312 309 309 309 309 311 313 315 318 321 321 331 294 270 249 247 249 277 297 304 302 307 291 248 309 92 109 134 132 132 129 104 28 215 63 3 112 122 130 141 141
338 331 325 317 310 310 306 305 306 308 311 315 317 321 318 323 290 240 221 199 237 261 280 292 289 296 299 277 181 111 135 91 54 27 116 136 164 165 183 229 120 124 135 147 145
338 332 325 318 308 306 304 304 304 306 310 314 317 322 314 249 275 126 195 233 243 281 302 283 285 295 271 98 131 92 82 109 124 274 130 156 128 60 317 130 128 134 143 154 164
338 333 326 318 309 304 300 299 299 303 307 312 319 324 339 233 250 223 216 245 261 262 259 274 281 300 92 263 108 105 180 141 150 217 143 175 127 138 213 118 122 133 151 164 183
338 334 328 320 311 305 300 297 298 301 304 310 318 315 231 256 235 178 206 237 225 250 261 274 299 320 312 341 84 158 224 182 178 167 185 118 126 115 172 128 133 148 159 172 192
338 334 330 320 312 306 300 297 297 297 298 304 310 299 260 244 294 301 193 242 242 247 280 301 291 344 316 322 112 229 228 203 154 119 103 96 131 163 153 140 148 160 166 175 194
337 334 330 322 314 309 302 296 293 292 292 297 306 283 255 262 248 274 270 250 258 273 283 284 336 315 292 280 155 241 228 128 212 163 175 131 256 184 165 152 158 165 170 176 182
337 335 330 322 313 309 302 296 290 287 281 278 267 218 266 276 226 244 261 253 252 256 269 275 315 268 304 307 307 244 12 223 187 194 181 159 205 223 178 165 165 171 169 173 175
337 335 331 322 315 314 306 284 288 308 230 236 257 284 258 241 209 203 246 253 253 242 262 263 264 266 274 264 249 248 220 179 166 194 175 91 295 242 191 167 172 169 165 170 174
337 334 332 325 323 329 325 214 277 261 249 207 194 231 282 227 256 195 217 236 252 259 233 247 220 243 261 94 337 351 332 0 205 109 89 158 254 291 234 170 165 159 166 167 178
336 332 330 325 322 328 294 249 243 2 231 232 259 270 268 282 155 218 187 190 248 252 242 277 234 245 117 60 338 302 272 300 100 70 130 220 231 242 53 54 167 156 171 172 179
334 330 327 321 325 275 236 244 283 322 290 222 215 245 251 198 265 207 204 237 219 249 253 220 250 140 167 184 249 274 76 51 230 315 305 282 23 45 354 35 14 338 177 183 176
328 327 324 322 302 243 228 241 255 268 299 250 183 245 243 221 233 232 183 204 239 236 250 249 266 241 138 214 273 307 63 24 333 10 262 205 188 350 339 322 5 303 336 176 132
330 325 316 288 316 253 239 218 236 254 285 155 172 245 199 188 211 198 179 213 226 224 202 255 254 269 215 172 301 266 22 330 286 274 320 297 75 274 347 341 6 355 270 343 97
324 320 314 216 217 246 291 287 94 239 240 158 176 190 189 211 253 149 175 220 230 251 252 250 316 273 229 320 230 290 305 292 279 222 357 5 110 274 218 222 249 240 297 167 161
320 306 271 304 230 335 315 261 208 231 135 145 161 160 188 213 224 153 188 212 217 166 275 271 255 246 167 328 313 292 283 319 336 42 211 348 63 243 234 235 207 213 260 81 124
318 300 220 237 276 339 317 151 253 267 244 159 161 179 198 213 161 168 190 197 256 253 241 218 281 199 212 177 216 254 199 179 207 174 223 53 91 286 253 239 285 225 241 83 86
312 179 234 228 230 253 310 230 235 240 195 141 165 185 216 209 144 149 189 203 218 226 212 328 307 132 198 178 176 264 272 244 183 185 84 4 300 345 11 336 278 274 84 81 84
297 256 219 189 170 212 262 246 264 273 276 147 167 192 204 177 162 163 194 213 230 208 188 262 335 209 162 107 292 258 255 348 345 91 32 16 273 253 36 253 258 105 108 103 74
240 252 207 165 159 218 234 248 290 277 311 183 189 184 212 166 174 205 197 241 211 232 177 333 124 268 132 180 218 288 270 314 99 115 137 153 255 194 224 238 284 122 116 135 128
304 272 148 155 167 215 233 247 273 292 9 337 303 5 223 174 172 209 52 219 155 93 38 295 269 355 259 23 60 47 10 37 102 294 156 135 264 144 202 243 193 96 127 157 139
293 279 153 176 202 239 251 243 253 279 322 327 311 233 323 286 128 169 91 60 57 62 84 360 330 348 331 15 351 33 342 348 346 357 281 115 247 156 205 113 109 102 101 100 118
283 272 166 211 253 285 300 286 277 259 303 316 259 315 316 63 123 125 133 99 81 101 180 101 300 115 219 302 108 24 354 350 24 353 313 16 189 44 73 91 75 67 69 86 103
231 258 306 214 225 234 262 285 304 269 229 325 342 323 316 359 76 27 120 130 100 57 48 96 287 309 306 116 125 150 44 335 306 256 156 65 71 62 75 79 69 54 36 64 101
298 350 343 295 254 214 240 272 288 239 198 211 278 289 309 292 121 67 81 68 84 236 147 301 280 359 315 340 112 146 241 227 243 261 181 106 124 142 120 93 76 73 43 36 64
333 334 296 277 303 198 227 261 276 297 307 186 157 326 21 50 73 89 191 192 161 153 94 15 59 53 314 352 355 359 272 242 66 40 62 75 104 75 61 63 62 46 85 60 78